Location: Deep South Regional Star Gaze
(30.9929°N, 90.9586°W)
Time: 09:04:51
(UTC-05:00)

Daily predictions for brighter satellites

Satellite Brightness Start Highest point End
(mag) Time Altitude Azimuth Time Altitude Azimuth Time Altitude Azimuth
Meteor 1-22 Rocket 4.4 19:32:24 10° S 19:38:11 84° E 19:44:13 10° N
Cosmos 1125 Rocket 3.8 19:34:18 10° S 19:39:13 45° ESE 19:44:10 10° NNE
SeaSat 1 3.7 19:37:41 10° ESE 19:41:32 23° ENE 19:45:23 10° N
Yuri Rocket 3.6 19:37:21 10° W 19:42:02 52° S 19:46:05 10° ESE
GPS 2-05 Rocket1 3.6 19:40:23 10° W 19:43:49 50° NNW 19:47:19 10° ENE
OAO 2 Rocket 4.1 19:41:13 10° SW 19:45:56 38° SSE 19:50:45 10° E
HJ-1C 4.2 19:49:02 10° SE 19:52:06 33° ENE 19:55:11 10° N
Cosmos 2297 3.7 19:47:32 10° S 19:53:09 66° ESE 19:58:50 10° NNE
SJ-6B 2.7 19:51:17 10° SSE 19:54:57 62° ENE 19:58:39 10° N
BREEZE-M DEB (TANK) 4.3 19:53:36 10° W 19:55:52 29° NNW 19:59:56 10° NE
H-2A R/B 3.7 19:53:41 10° SE 19:57:04 29° ENE 20:00:30 10° NNE
Resurs 01 Rocket 2.4 19:55:18 10° SE 19:59:14 32° ENE 20:03:10 10° N
SL-27 R/B 3.1 19:59:53 10° NNW 20:03:27 60° WSW 20:07:02 10° S
FengYun 1-2 T 4.3 20:01:15 10° SSE 20:06:43 61° ENE 20:12:14 10° N
ISS -2.5 20:04:36 10° WSW 20:07:41 41° NW 20:10:47 10° NNE
Cosmos 1605 Rocket 4.0 20:01:28 10° S 20:07:42 88° E 20:14:05 10° N
Cosmos 2082 Rocket 2.9 20:05:36 10° N 20:10:39 33° ENE 20:14:42 15° ESE
Meteor 1-29 4.2 20:14:10 10° NE 20:16:42 21° E 20:16:42 21° E
BREEZE-M DEB (TANK) 4.3 20:15:45 10° SSE 20:16:23 13° SSE 20:16:23 13° SSE
FREGAT/IRIS 4.1 20:15:16 10° S 20:18:09 39° W 20:21:04 10° NNW
Cosmos 1271 Rocket 3.1 20:18:14 10° SSE 20:22:01 43° E 20:25:50 10° NNE
Delta 128 3.7 20:17:37 10° W 20:22:12 60° S 20:24:46 23° ESE
Cosmos 1758 3.6 20:19:23 10° SSW 20:23:19 71° W 20:27:19 10° N
Aurora 2 Rocket 4.0 20:17:30 10° WSW 20:25:19 50° S 20:28:56 22° ESE
COSMOS 2487 3.1 20:22:27 10° N 20:25:46 35° ENE 20:26:45 29° ESE
H-2A R/B 3.4 20:21:34 10° WSW 20:26:09 76° S 20:47:56 17° E
H-2A R/B 3.4 20:21:33 10° WSW 20:26:09 76° S 20:47:59 17° E
H-2A R/B 3.4 20:21:33 10° WSW 20:26:10 76° S 20:47:58 17° E
H-2A R/B 3.4 20:21:34 10° WSW 20:26:10 76° S 20:47:58 17° E
H-2A R/B 3.4 20:21:33 10° WSW 20:26:10 76° S 20:47:54 17° E
H-2A R/B 3.4 20:21:33 10° WSW 20:26:10 76° S 20:47:57 17° E
H-2A R/B 3.4 20:21:33 10° WSW 20:26:10 76° S 20:47:59 17° E
Cosmos 372 Rocket 4.1 20:22:09 10° SSW 20:27:15 78° WNW 20:32:24 10° NNE
Cosmos 2123 Rocket 4.4 20:22:22 10° NNW 20:28:37 67° W 20:34:46 10° S
Cosmos 1953 2.8 20:25:39 10° SSW 20:29:40 65° W 20:33:42 10° N
Cosmos 1818 3.5 20:25:38 10° NNW 20:31:04 71° ENE 20:35:03 18° SE
Cosmos 1269 Rocket 4.1 20:26:24 10° N 20:31:35 56° ENE 20:35:23 18° SE
Resurs 1-3 3.5 20:30:12 10° SSE 20:34:33 75° ENE 20:38:56 10° N
Cosmos 1674 2.9 20:31:19 10° N 20:34:59 47° E 20:36:15 33° SE
Cosmos 1802 Rocket 4.2 20:29:50 10° SSE 20:35:35 44° E 20:41:23 10° NNE
Cosmos 468 4.5 20:30:52 10° NNW 20:36:07 86° WSW 20:41:22 10° SSE
Cosmos 158 Rocket 4.2 20:31:14 10° N 20:36:16 50° ENE 20:39:05 25° SE
USA 215 3.3 20:33:04 10° NE 20:39:24 52° SE 20:45:42 10° SSW
Cosmos 1408 Rocket 3.6 20:35:38 10° N 20:40:03 60° E 20:42:45 22° SSE
Meteor 1-4 Rocket 4.3 20:37:19 10° SW 20:40:29 33° W 20:43:39 10° NNW
TIMED 4.4 20:41:43 10° S 20:46:03 71° ESE 20:50:24 10° NNE
Helios 1B rocket 2.3 20:42:47 10° NNE 20:46:55 81° ESE 20:51:01 10° S
Delta 168 3.5 20:44:12 10° WSW 20:47:54 33° S 20:48:10 32° S
Cosmos 1842 Rocket 4.4 20:50:28 32° NE 20:50:28 32° NE 20:53:21 10° NNE
Spot 2 Rocket 3.8 20:45:46 10° S 20:50:50 69° WSW 20:55:56 10° NNW
Cosmos 2061 Rocket 3.9 20:46:27 10° S 20:52:47 72° E 20:59:11 10° N
Lacrosse 5 rocket 2.8 20:51:48 10° N 20:54:09 21° NNE 20:54:09 21° NNE
CZ-2D R/B 3.7 20:53:52 19° S 20:56:30 61° W 21:00:20 10° NNW
Cosmos 1459 Rocket 3.9 20:51:11 10° S 20:57:28 86° E 21:03:40 10° N
Cosmos 1076 Rocket 4.4 20:55:46 10° NNW 20:59:51 48° W 21:03:55 10° SSW
Helios 1A 2.8 21:02:56 62° SSE 21:03:36 88° ENE 21:07:47 10° NNW
Gblst 52 Del rocket 4.3 20:57:22 10° SW 21:03:36 82° NW 21:07:37 20° NE
Timation 2 Rocket 3.8 20:57:51 10° NNW 21:04:05 77° ENE 21:06:20 41° SSE
Cosmos 2173 Rocket 4.0 20:59:37 10° S 21:05:45 82° W 21:12:02 10° N
Abrixas 4.5 21:05:26 10° WNW 21:06:58 28° WNW 21:06:58 28° WNW
Envisat 2.9 21:08:43 61° E 21:09:03 63° ENE 21:14:03 10° N
Tiangong 1 4.0 21:11:11 10° WSW 21:11:51 11° SW 21:11:51 11° SW
Meteor 2-17 Rocket 4.3 21:07:46 10° S 21:13:55 82° E 21:20:05 10° N
Cosmos 1833 Rocket 2.8 21:08:48 10° NNW 21:14:24 73° WSW 21:16:33 38° S
SeaSat 1 3.8 21:15:18 15° S 21:18:48 35° WSW 21:23:19 10° NW
ERS-1 Rocket 4.2 21:23:16 29° NNE 21:23:16 29° NNE 21:26:01 10° N
ATLAS 5 CENTAUR R/B 4.3 21:18:47 10° W 21:22:10 20° NW 21:25:45 10° N
OAO 2 Rocket 3.5 21:25:24 10° WSW 21:30:18 74° NW 21:30:18 74° NW
Resurs 01 Rocket 4.4 21:32:58 10° SW 21:35:43 16° W 21:38:29 10° NW
CZ-3 Stage 3 3.0 21:06:02 10° W 21:36:21 87° S 21:37:49 63° ESE
Cosmos 2016 Rocket 4.4 21:31:50 10° SSW 21:37:59 61° W 21:44:05 10° N
Cosmos 1340 Rocket 4.5 21:35:15 10° NNW 21:38:08 32° WNW 21:38:08 32° WNW
Cosmos 1725 Rocket 4.0 21:47:25 76° WSW 21:47:39 77° W 21:53:52 10° N
Cosmos 2082 Rocket 4.0 21:49:55 10° NW 21:54:31 26° WSW 21:56:37 21° SW
USA 215 4.5 22:16:19 10° NNE 22:22:10 37° NW 22:28:02 10° WSW
